(238480) = 2004 RC157

Discovered at Socorro on 2004-09-10 by LINEAR.

Orbit

Orbit type: Main Belt

Note: WebGL enabled browser required.

epoch2024-03-31.0
epoch JD2460400.5
perihelion date2021-09-10.77674
perihelion JD2459468.27674
argument of perihelion (°)184.67740
ascending node (°)185.63700
inclination (°)8.89435
eccentricity0.1108711
perihelion distance (AU)2.0019634
Tisserand w.r.t. Jupiter3.6
ΔV w.r.t. Earth (km/sec)9.2
semimajor axis (AU)2.2516008
mean anomaly (°)271.94852
mean daily motion (°/day)0.29172040
aphelion distance (AU)2.501
period (years)3.38
P-vector [x]0.98393638
P-vector [y]0.16839457
P-vector [z]0.05926604
Q-vector [x]-0.17787229
Q-vector [y]0.95300961
Q-vector [z]0.24522263
absolute magnitude16.74
phase slope0.15
uncertainty0
referenceMPEC 2024-E179
observations used731
oppositions14
arc length (days)7789
first opposition used2001
last opposition used2023
residual rms (arc-secs)0.65
perturbers coarse indicatorM-v
perturbers precise indicator003Ek
first observation date used2001-12-19.0
last observation date used2023-04-17.0
computer nameMPCLINUX
JD of orbit computation2456966.818860
perihelion JD uncertainty (days)4.8047E-05
argument of perihelion uncertainty (°)2.3140E-05
ascending node uncertainty (°)1.7939E-05
inclination uncertainty (°)5.0649E-06
eccentricity uncertainty 4.5094E-08
perihelion distance uncertainty (AU)1.0343E-07
Minimum Orbit Intersection Distances (in AU)
for orbit epoch: 2460400.5, reference: E2024-GD4
Mercury1.64598
Venus1.27704
Earth1.00134
Mars0.58834
Jupiter2.94766
Saturn6.81913
Uranus15.9616
Neptune27.7938

Observations

742 total observations over interval: 2001 12 19.22618 – 2023 04 17.295699
These data are available for download (format description).

Date (UT) J2000 RA J2000 Dec Magn Location Ref
2001 12 19.22618 04 53 49.31 +07 00 47.5 19.2   704 – Lincoln Laboratory ETS, New Mexico MPS 118440
2001 12 19.25613 04 53 47.49 +07 00 46.5 19.3   704 – Lincoln Laboratory ETS, New Mexico MPS 118440
2001 12 19.27214 04 53 46.56 +07 00 46.8 18.8   704 – Lincoln Laboratory ETS, New Mexico MPS 118440
2001 12 19.28778 04 53 45.64 +07 00 46.2 18.8   704 – Lincoln Laboratory ETS, New Mexico MPS 118440
2001 12 23.82671 04 49 39.84 +07 01 15.8 19.9 V 209 – Asiago Observatory, Cima Ekar-ADAS MPS 118440
2001 12 23.87717 04 49 37.13 +07 01 17.4 19.1 V 209 – Asiago Observatory, Cima Ekar-ADAS MPS 118441
2001 12 23.92798 04 49 34.44 +07 01 19.8 19.0 V 209 – Asiago Observatory, Cima Ekar-ADAS MPS 118441
2003 04 10.39987 13 44 34.84 -05 51 47.1 20.3 V 691 – Steward Observatory, Kitt Peak-Spacewatch MPS 118441
2003 04 10.42711 13 44 33.31 -05 51 31.9 20.2 V 691 – Steward Observatory, Kitt Peak-Spacewatch MPS 118441
2003 04 10.45449 13 44 31.80 -05 51 16.5 20.6 V 691 – Steward Observatory, Kitt Peak-Spacewatch MPS 118441
2003 04 28.19252 13 28 36.57 -03 15 35.4 20.7 V 691 – Steward Observatory, Kitt Peak-Spacewatch MPS 118441
2003 04 28.21930 13 28 35.14 -03 15 22.1 20.8 V 691 – Steward Observatory, Kitt Peak-Spacewatch MPS 118441
2003 04 28.24644 13 28 33.70 -03 15 09.7 21.4 V 691 – Steward Observatory, Kitt Peak-Spacewatch MPS 118441
2004 09 10.24074 00 10 21.71 +04 23 03.1 19.1   704 – Lincoln Laboratory ETS, New Mexico MPS 113190
2004 09 10.25256 00 10 21.24 +04 22 56.3 19.6   704 – Lincoln Laboratory ETS, New Mexico MPS 113190
2004 09 10.26451 00 10 20.76 +04 22 47.8 19.6   704 – Lincoln Laboratory ETS, New Mexico MPS 113190
2004 09 10.27630 00 10 20.21 +04 22 40.6 19.3   704 – Lincoln Laboratory ETS, New Mexico MPS 113190
2004 09 10.28857 00 10 19.70 +04 22 32.3 19.5   704 – Lincoln Laboratory ETS, New Mexico MPS 113190
2004 09 11.40265 00 09 35.27 +04 10 21.9 19.0 V 691 – Steward Observatory, Kitt Peak-Spacewatch MPS 113190
2004 09 11.43002 00 09 34.10 +04 10 03.9 18.9 V 691 – Steward Observatory, Kitt Peak-Spacewatch MPS 113190
2004 09 11.45763 00 09 32.93 +04 09 45.4 19.0 V 691 – Steward Observatory, Kitt Peak-Spacewatch MPS 113190
2004 09 13.23491 00 08 20.55 +03 49 49.2 18.4   704 – Lincoln Laboratory ETS, New Mexico MPS 113190
2004 09 13.24646 00 08 20.04 +03 49 41.1 19.0   704 – Lincoln Laboratory ETS, New Mexico MPS 113190
2004 09 13.25802 00 08 19.60 +03 49 33.8 19.0   704 – Lincoln Laboratory ETS, New Mexico MPS 113190
2004 09 13.26956 00 08 18.99 +03 49 25.4 18.7   704 – Lincoln Laboratory ETS, New Mexico MPS 113190
2004 09 13.28111 00 08 18.49 +03 49 18.1 18.6   704 – Lincoln Laboratory ETS, New Mexico MPS 113190
2004 09 13.36791 00 08 14.65 +03 48 18.2 18.4 R 699 – Lowell Observatory-LONEOS MPS 120528
2004 09 13.38253 00 08 13.98 +03 48 08.9   699 – Lowell Observatory-LONEOS MPS 120528
2004 09 13.39714 00 08 13.32 +03 47 58.8   699 – Lowell Observatory-LONEOS MPS 120528
2004 09 13.41172 00 08 12.68 +03 47 48.4   699 – Lowell Observatory-LONEOS MPS 120528
2004 09 16.27279 00 06 09.96 +03 14 32.7 18.2 R 699 – Lowell Observatory-LONEOS MPS 115325
2004 09 16.29068 00 06 09.10 +03 14 20.8   699 – Lowell Observatory-LONEOS MPS 115325
2004 09 16.30856 00 06 08.35 +03 14 07.9   699 – Lowell Observatory-LONEOS MPS 115325
2004 09 16.32643 00 06 07.46 +03 13 55.0   699 – Lowell Observatory-LONEOS MPS 115325
2004 09 17.20580 00 05 28.88 +03 03 28.0 18.7 V 691 – Steward Observatory, Kitt Peak-Spacewatch MPS 113190
2004 09 17.23293 00 05 27.60 +03 03 08.5 18.7 V 691 – Steward Observatory, Kitt Peak-Spacewatch MPS 113190
2004 09 17.25924 00 05 26.36 +03 02 49.8 18.6 V 691 – Steward Observatory, Kitt Peak-Spacewatch MPS 113190
2004 09 17.27112 00 05 25.75 +03 02 41.5 18.5   704 – Lincoln Laboratory ETS, New Mexico MPS 113190
2004 09 17.28279 00 05 25.21 +03 02 32.9 18.9   704 – Lincoln Laboratory ETS, New Mexico MPS 113190
2004 09 17.29447 00 05 24.66 +03 02 24.6 18.9   704 – Lincoln Laboratory ETS, New Mexico MPS 113190
2004 09 17.30615 00 05 24.12 +03 02 16.2 19.0   704 – Lincoln Laboratory ETS, New Mexico MPS 113190
2004 09 17.31784 00 05 23.52 +03 02 08.0 19.0   704 – Lincoln Laboratory ETS, New Mexico MPS 113190
2004 09 20.26900 00 03 10.67 +02 26 23.9 19.1 R 683 – Goodricke-Pigott Observatory, Tucson MPS 114497
2004 09 20.28236 00 03 09.98 +02 26 12.9 19.3 R 683 – Goodricke-Pigott Observatory, Tucson MPS 114497
2004 09 20.29577 00 03 09.27 +02 26 03.6 18.9 R 683 – Goodricke-Pigott Observatory, Tucson MPS 114497
2004 09 21.41584 00 02 17.76 +02 12 19.6 18.5 V 691 – Steward Observatory, Kitt Peak-Spacewatch MPS 114497
2004 09 21.44217 00 02 16.49 +02 12 00.0 18.5 V 691 – Steward Observatory, Kitt Peak-Spacewatch MPS 114497
2004 09 21.46945 00 02 15.20 +02 11 39.7 18.7 V 691 – Steward Observatory, Kitt Peak-Spacewatch MPS 114497
2004 09 22.26250 00 01 39.44 +02 01 50.9 18.8 R 683 – Goodricke-Pigott Observatory, Tucson MPS 114497
2004 09 22.27585 00 01 38.79 +02 01 42.2 18.8 R 683 – Goodricke-Pigott Observatory, Tucson MPS 114497
2004 09 22.28927 00 01 38.15 +02 01 33.4 19.2 R 683 – Goodricke-Pigott Observatory, Tucson MPS 114497
2004 09 23.25922 00 00 53.73 +01 49 35.5 18.7 R 683 – Goodricke-Pigott Observatory, Tucson MPS 114497
2004 09 23.27258 00 00 53.08 +01 49 25.8 19.1 R 683 – Goodricke-Pigott Observatory, Tucson MPS 114497
2004 09 23.28599 00 00 52.43 +01 49 15.9 19.2 R 683 – Goodricke-Pigott Observatory, Tucson MPS 114497
2004 10 07.27707 23 50 53.03 -00 59 31.7 18.9   704 – Lincoln Laboratory ETS, New Mexico MPS 115812
2004 10 07.28776 23 50 52.59 -00 59 38.9 19.2   704 – Lincoln Laboratory ETS, New Mexico MPS 115812
2004 10 07.29845 23 50 52.15 -00 59 46.1 19.1   704 – Lincoln Laboratory ETS, New Mexico MPS 115812
2004 10 07.30915 23 50 51.74 -00 59 52.5 19.7   704 – Lincoln Laboratory ETS, New Mexico MPS 115812
2004 10 07.31982 23 50 51.32 -01 00 00.2 19.7   704 – Lincoln Laboratory ETS, New Mexico MPS 115812
2004 10 09.19504 23 49 43.95 -01 20 51.9 18.7   704 – Lincoln Laboratory ETS, New Mexico MPS 116690
2004 10 09.20576 23 49 43.54 -01 20 58.8 19.2   704 – Lincoln Laboratory ETS, New Mexico MPS 116690
2004 10 09.21647 23 49 43.13 -01 21 06.1 19.1   704 – Lincoln Laboratory ETS, New Mexico MPS 116690
2004 10 09.22719 23 49 42.69 -01 21 13.4 19.2   704 – Lincoln Laboratory ETS, New Mexico MPS 116690
2004 10 09.23790 23 49 42.32 -01 21 20.3 18.8   704 – Lincoln Laboratory ETS, New Mexico MPS 116690
2004 10 18.08133 23 45 30.74 -02 49 16.7 19.1   704 – Lincoln Laboratory ETS, New Mexico MPS 117645
2004 10 18.10480 23 45 30.15 -02 49 29.1 18.9   704 – Lincoln Laboratory ETS, New Mexico MPS 117645
2004 10 18.11654 23 45 29.84 -02 49 35.0 19.4   704 – Lincoln Laboratory ETS, New Mexico MPS 117645
2004 10 18.12827 23 45 29.56 -02 49 40.1 19.6   704 – Lincoln Laboratory ETS, New Mexico MPS 117645
2004 10 18.19666 23 45 27.97 -02 50 16.7 19.2   704 – Lincoln Laboratory ETS, New Mexico MPS 117645
2004 10 18.20774 23 45 27.69 -02 50 23.4 19.5   704 – Lincoln Laboratory ETS, New Mexico MPS 117645
2004 10 18.21881 23 45 27.47 -02 50 29.4 19.4   704 – Lincoln Laboratory ETS, New Mexico MPS 117645
2004 10 18.22988 23 45 27.13 -02 50 35.8 19.7   704 – Lincoln Laboratory ETS, New Mexico MPS 117645
2004 10 18.24095 23 45 26.92 -02 50 40.5 18.9   704 – Lincoln Laboratory ETS, New Mexico MPS 117645
2006 02 02.45555 11 10 40.20 -02 13 30.4 20.7 V 691 – Steward Observatory, Kitt Peak-Spacewatch MPS 161793
2006 02 02.47297 11 10 39.67 -02 13 26.0 20.4 V 691 – Steward Observatory, Kitt Peak-Spacewatch MPS 161793
2006 02 02.49028 11 10 39.09 -02 13 21.3 20.6 V 691 – Steward Observatory, Kitt Peak-Spacewatch MPS 161793
2006 05 04.13757 10 25 49.80 +07 59 49.6 21.3 V G96 – Mt. Lemmon Survey MPS 170835
2006 05 04.14502 10 25 49.94 +07 59 49.7 22.5 V G96 – Mt. Lemmon Survey MPS 170835
2006 05 04.15265 10 25 50.16 +07 59 50.6 21.4 V G96 – Mt. Lemmon Survey MPS 170835
2006 05 04.16017 10 25 50.34 +07 59 50.7 21.7 V G96 – Mt. Lemmon Survey MPS 170835
2008 12 21.40659 07 59 36.85 +05 53 34.9 21.0 V 703 – Catalina Sky Survey MPS 269246
2008 12 21.41326 07 59 36.49 +05 53 35.9 19.9 V 703 – Catalina Sky Survey MPS 269246
